TimeMST,TemperatureF,Dew PointF,Humidity,Sea Level PressureIn,VisibilityMPH,Wind Direction,Wind SpeedMPH,Gust SpeedMPH,PrecipitationIn,Events,Conditions,WindDirDegrees,DateUTC
12:53 AM,21.9,10.0,60,30.06,10.0,WNW,12.7,-,N/A,,Clear,290,2013-02-13 07:53:00
1:53 AM,21.9,10.0,60,30.04,10.0,WNW,12.7,-,N/A,,Clear,300,2013-02-13 08:53:00
2:53 AM,18.0,9.0,68,30.02,10.0,WNW,10.4,-,N/A,,Clear,290,2013-02-13 09:53:00
3:53 AM,19.9,10.0,65,30.02,10.0,West,10.4,-,N/A,,Clear,270,2013-02-13 10:53:00
4:53 AM,18.0,9.0,68,30.02,10.0,West,9.2,-,N/A,,Clear,260,2013-02-13 11:53:00
5:53 AM,19.9,8.1,60,30.05,10.0,West,15.0,-,N/A,,Clear,260,2013-02-13 12:53:00
6:53 AM,19.0,8.1,62,30.07,10.0,West,9.2,-,N/A,,Clear,280,2013-02-13 13:53:00
7:53 AM,26.1,10.0,51,30.05,10.0,West,10.4,-,N/A,,Clear,270,2013-02-13 14:53:00
8:53 AM,39.0,12.0,33,30.02,10.0,WNW,10.4,-,N/A,,Clear,300,2013-02-13 15:53:00
9:53 AM,46.0,12.0,25,30.00,10.0,NW,16.1,-,N/A,,Clear,320,2013-02-13 16:53:00
10:53 AM,48.0,12.9,24,29.99,10.0,NNW,20.7,26.5,N/A,,Clear,330,2013-02-13 17:53:00
11:53 AM,51.1,12.9,22,29.95,10.0,NNW,13.8,29.9,N/A,,Clear,330,2013-02-13 18:53:00
12:53 PM,53.1,12.9,20,29.92,10.0,North,25.3,33.4,N/A,,Clear,350,2013-02-13 19:53:00
1:53 PM,53.1,10.9,19,29.91,10.0,NNW,33.4,40.3,N/A,,Clear,340,2013-02-13 20:53:00
2:53 PM,52.0,10.9,19,29.92,10.0,NNW,24.2,33.4,N/A,,Clear,330,2013-02-13 21:53:00
3:53 PM,52.0,12.9,21,29.91,10.0,NNW,21.9,-,N/A,,Clear,330,2013-02-13 22:53:00
4:53 PM,48.9,16.0,27,29.93,10.0,North,12.7,-,N/A,,Clear,360,2013-02-13 23:53:00
5:53 PM,37.0,14.0,39,29.97,10.0,North,3.5,-,N/A,,Clear,350,2013-02-14 00:53:00
6:53 PM,34.0,15.1,46,29.99,10.0,West,3.5,-,N/A,,Clear,280,2013-02-14 01:53:00
7:53 PM,27.0,12.0,53,30.02,10.0,West,8.1,-,N/A,,Clear,260,2013-02-14 02:53:00
8:53 PM,35.1,16.0,46,30.00,10.0,WNW,13.8,-,N/A,,Clear,300,2013-02-14 03:53:00
9:53 PM,30.0,15.1,54,30.00,10.0,WNW,12.7,-,N/A,,Clear,300,2013-02-14 04:53:00
10:53 PM,33.1,18.0,54,30.01,10.0,NW,15.0,-,N/A,,Clear,320,2013-02-14 05:53:00
11:53 PM,28.0,17.1,63,30.03,10.0,NW,10.4,-,N/A,,Clear,310,2013-02-14 06:53:00